Time,TemperatureF,DewpointF,PressureIn,WindDirection,WindDirectionDegrees,WindSpeedMPH,WindSpeedGustMPH,Humidity,HourlyPrecipIn,Conditions,Clouds,dailyrainin,SoftwareType,DateUTC
2013-01-20 00:04:00,17.4,15.6,30.43,SSW,202,0.0,0.0,93,0.00,,,0.00,WUHU21623XXSP,2013-01-20 08:04:00,
2013-01-20 00:09:00,17.4,15.6,30.43,SSW,202,0.0,0.0,93,0.00,,,0.00,WUHU21623XXSP,2013-01-20 08:09:00,
2013-01-20 00:14:00,16.9,15.1,30.43,SSW,202,0.0,0.0,93,0.00,,,0.00,WUHU21623XXSP,2013-01-20 08:14:00,
2013-01-20 00:19:00,16.9,15.1,30.43,SSW,202,0.0,0.0,93,0.00,,,0.00,WUHU21623XXSP,2013-01-20 08:19:00,
2013-01-20 00:24:00,16.7,14.9,30.43,SSW,202,0.0,0.0,93,0.00,,,0.00,WUHU21623XXSP,2013-01-20 08:24:00,
2013-01-20 00:29:00,16.3,14.5,30.43,SSW,202,0.0,0.0,93,0.00,,,0.00,WUHU21623XXSP,2013-01-20 08:29:00,
2013-01-20 00:34:00,16.5,14.7,30.43,SSW,202,0.0,0.0,93,0.00,,,0.00,WUHU21623XXSP,2013-01-20 08:34:00,
2013-01-20 00:39:00,16.5,14.7,30.43,SSW,202,0.0,0.0,93,0.00,,,0.00,WUHU21623XXSP,2013-01-20 08:39:00,
2013-01-20 00:44:00,16.0,14.2,30.43,SSW,202,0.0,0.0,93,0.00,,,0.00,WUHU21623XXSP,2013-01-20 08:44:00,
2013-01-20 00:49:00,15.6,13.8,30.43,SSW,202,0.0,0.0,93,0.00,,,0.00,WUHU21623XXSP,2013-01-20 08:49:00,
2013-01-20 00:54:00,15.4,13.6,30.43,SSW,202,0.0,0.0,93,0.00,,,0.00,WUHU21623XXSP,2013-01-20 08:54:00,
2013-01-20 00:59:00,15.6,13.8,30.43,SSW,202,0.0,0.0,93,0.00,,,0.00,WUHU21623XXSP,2013-01-20 08:59:00,
2013-01-20 01:04:00,15.4,13.6,30.43,SSW,202,0.0,0.0,93,0.00,,,0.00,WUHU21623XXSP,2013-01-20 09:04:00,
2013-01-20 01:09:00,15.1,13.3,30.43,SSW,202,0.0,0.0,93,0.00,,,0.00,WUHU21623XXSP,2013-01-20 09:09:00,
2013-01-20 01:14:00,15.1,13.3,30.43,SSW,202,0.0,0.0,93,0.00,,,0.00,WUHU21623XXSP,2013-01-20 09:14:00,
2013-01-20 01:19:00,15.3,13.5,30.43,SSW,202,0.0,0.0,93,0.00,,,0.00,WUHU21623XXSP,2013-01-20 09:19:00,
2013-01-20 01:24:00,15.4,13.6,30.43,SSW,202,0.0,0.0,93,0.00,,,0.00,WUHU21623XXSP,2013-01-20 09:24:00,
2013-01-20 01:29:00,15.1,13.3,30.44,SSW,202,0.0,0.0,93,0.00,,,0.00,WUHU21623XXSP,2013-01-20 09:29:00,
2013-01-20 01:34:00,15.1,13.3,30.44,SSW,202,0.0,0.0,93,0.00,,,0.00,WUHU21623XXSP,2013-01-20 09:34:00,
2013-01-20 01:39:00,14.7,12.9,30.44,SSW,202,0.0,0.0,93,0.00,,,0.00,WUHU21623XXSP,2013-01-20 09:39:00,
2013-01-20 01:44:00,14.5,12.7,30.45,SSW,202,0.0,0.0,93,0.00,,,0.00,WUHU21623XXSP,2013-01-20 09:44:00,
2013-01-20 01:49:00,14.7,12.9,30.45,SSW,202,0.0,0.0,93,0.00,,,0.00,WUHU21623XXSP,2013-01-20 09:49:00,
2013-01-20 01:54:00,15.1,13.3,30.45,SSW,202,0.0,0.0,93,0.00,,,0.00,WUHU21623XXSP,2013-01-20 09:54:00,
2013-01-20 01:59:00,14.7,12.9,30.45,SSW,202,0.0,0.0,93,0.00,,,0.00,WUHU21623XXSP,2013-01-20 09:59:00,
2013-01-20 02:04:00,14.2,12.5,30.45,SSW,202,0.0,0.0,93,0.00,,,0.00,WUHU21623XXSP,2013-01-20 10:04:00,
2013-01-20 02:09:00,14.2,12.5,30.45,SSW,202,0.0,0.0,93,0.00,,,0.00,WUHU21623XXSP,2013-01-20 10:09:00,
2013-01-20 02:14:00,14.5,12.7,30.45,SSW,202,0.0,0.0,93,0.00,,,0.00,WUHU21623XXSP,2013-01-20 10:14:00,
2013-01-20 02:19:00,14.7,12.9,30.44,SSW,202,0.0,0.0,93,0.00,,,0.00,WUHU21623XXSP,2013-01-20 10:19:00,
2013-01-20 02:24:00,14.7,12.9,30.45,SSW,202,0.0,0.0,93,0.00,,,0.00,WUHU21623XXSP,2013-01-20 10:24:00,
2013-01-20 02:29:00,15.1,13.3,30.45,SSW,202,0.0,0.0,93,0.00,,,0.00,WUHU21623XXSP,2013-01-20 10:29:00,
2013-01-20 02:34:00,15.1,13.3,30.45,SSW,202,0.0,0.0,93,0.00,,,0.00,WUHU21623XXSP,2013-01-20 10:34:00,
2013-01-20 02:39:00,15.4,13.6,30.46,SSW,202,0.0,0.0,93,0.00,,,0.00,WUHU21623XXSP,2013-01-20 10:39:00,
2013-01-20 02:44:00,15.6,13.8,30.45,SSW,202,0.0,0.0,93,0.00,,,0.00,WUHU21623XXSP,2013-01-20 10:44:00,
2013-01-20 02:49:00,15.6,13.8,30.45,SSW,202,0.0,0.0,93,0.00,,,0.00,WUHU21623XXSP,2013-01-20 10:49:00,
2013-01-20 02:54:00,15.6,13.8,30.46,SSW,202,0.0,0.0,93,0.00,,,0.00,WUHU21623XXSP,2013-01-20 10:54:00,
2013-01-20 02:59:00,15.6,13.8,30.45,SSW,202,0.0,0.0,93,0.00,,,0.00,WUHU21623XXSP,2013-01-20 10:59:00,
2013-01-20 03:04:00,15.4,13.6,30.45,SSW,202,0.0,0.0,93,0.00,,,0.00,WUHU21623XXSP,2013-01-20 11:04:00,
2013-01-20 03:09:00,15.3,13.5,30.45,SSW,202,0.0,0.0,93,0.00,,,0.00,WUHU21623XXSP,2013-01-20 11:09:00,
2013-01-20 03:14:00,15.1,13.3,30.45,SSW,202,0.0,0.0,93,0.00,,,0.00,WUHU21623XXSP,2013-01-20 11:14:00,
2013-01-20 03:19:00,15.3,13.5,30.46,SSW,202,0.0,0.0,93,0.00,,,0.00,WUHU21623XXSP,2013-01-20 11:19:00,
2013-01-20 03:24:00,15.3,13.5,30.46,SSW,202,0.0,0.0,93,0.00,,,0.00,WUHU21623XXSP,2013-01-20 11:24:00,
2013-01-20 03:29:00,14.9,13.1,30.46,SSW,202,0.0,0.0,93,0.00,,,0.00,WUHU21623XXSP,2013-01-20 11:29:00,
2013-01-20 03:34:00,14.9,13.1,30.46,SSW,202,0.0,0.0,93,0.00,,,0.00,WUHU21623XXSP,2013-01-20 11:34:00,
2013-01-20 03:39:00,14.7,12.9,30.46,SSW,202,0.0,0.0,93,0.00,,,0.00,WUHU21623XXSP,2013-01-20 11:39:00,
2013-01-20 03:44:00,14.7,12.9,30.46,SSW,202,0.0,0.0,93,0.00,,,0.00,WUHU21623XXSP,2013-01-20 11:44:00,
2013-01-20 03:49:00,14.5,12.7,30.45,SSW,202,0.0,0.0,93,0.00,,,0.00,WUHU21623XXSP,2013-01-20 11:49:00,
2013-01-20 03:54:00,14.2,12.5,30.46,SSW,202,0.0,0.0,93,0.00,,,0.00,WUHU21623XXSP,2013-01-20 11:54:00,
2013-01-20 03:59:00,13.6,11.9,30.46,SSW,202,0.0,0.0,93,0.00,,,0.00,WUHU21623XXSP,2013-01-20 11:59:00,
2013-01-20 04:04:00,13.3,11.6,30.45,SSW,202,0.0,0.0,93,0.00,,,0.00,WUHU21623XXSP,2013-01-20 12:04:00,
2013-01-20 04:09:00,13.1,11.1,30.45,SSW,202,0.0,0.0,92,0.00,,,0.00,WUHU21623XXSP,2013-01-20 12:09:00,
2013-01-20 04:14:00,13.1,11.1,30.45,SSW,202,0.0,0.0,92,0.00,,,0.00,WUHU21623XXSP,2013-01-20 12:14:00,
2013-01-20 04:19:00,12.6,10.6,30.45,SSW,202,0.0,0.0,92,0.00,,,0.00,WUHU21623XXSP,2013-01-20 12:19:00,
2013-01-20 04:24:00,11.7,9.7,30.45,SSW,202,0.0,0.0,92,0.00,,,0.00,WUHU21623XXSP,2013-01-20 12:24:00,
2013-01-20 04:29:00,11.5,9.5,30.45,SSW,202,0.0,0.0,92,0.00,,,0.00,WUHU21623XXSP,2013-01-20 12:29:00,
2013-01-20 04:34:00,11.3,9.3,30.45,SSW,202,0.0,0.0,92,0.00,,,0.00,WUHU21623XXSP,2013-01-20 12:34:00,
2013-01-20 04:39:00,11.7,9.7,30.45,SSW,202,0.0,0.0,92,0.00,,,0.00,WUHU21623XXSP,2013-01-20 12:39:00,
2013-01-20 04:44:00,11.7,9.7,30.45,SSW,202,0.0,0.0,92,0.00,,,0.00,WUHU21623XXSP,2013-01-20 12:44:00,
2013-01-20 04:49:00,11.8,9.8,30.45,SSW,202,0.0,0.0,92,0.00,,,0.00,WUHU21623XXSP,2013-01-20 12:49:00,
2013-01-20 04:54:00,11.3,9.3,30.45,SSW,202,0.0,0.0,92,0.00,,,0.00,WUHU21623XXSP,2013-01-20 12:54:00,
2013-01-20 04:59:00,11.1,9.1,30.45,SSW,202,0.0,0.0,92,0.00,,,0.00,WUHU21623XXSP,2013-01-20 12:59:00,
2013-01-20 05:04:00,11.1,9.1,30.45,SSW,202,0.0,0.0,92,0.00,,,0.00,WUHU21623XXSP,2013-01-20 13:04:00,
2013-01-20 05:09:00,10.9,8.9,30.45,SSW,202,0.0,0.0,92,0.00,,,0.00,WUHU21623XXSP,2013-01-20 13:09:00,
2013-01-20 05:14:00,10.9,8.9,30.45,SSW,202,0.0,0.0,92,0.00,,,0.00,WUHU21623XXSP,2013-01-20 13:14:00,
2013-01-20 05:19:00,10.8,8.8,30.45,SSW,202,0.0,0.0,92,0.00,,,0.00,WUHU21623XXSP,2013-01-20 13:19:00,
2013-01-20 05:24:00,10.6,8.6,30.45,SSW,202,0.0,0.0,92,0.00,,,0.00,WUHU21623XXSP,2013-01-20 13:24:00,
2013-01-20 05:29:00,11.1,9.1,30.45,SSW,202,0.0,0.0,92,0.00,,,0.00,WUHU21623XXSP,2013-01-20 13:29:00,
2013-01-20 05:34:00,11.3,9.3,30.45,SSW,202,0.0,0.0,92,0.00,,,0.00,WUHU21623XXSP,2013-01-20 13:34:00,
2013-01-20 05:39:00,11.7,9.7,30.45,SSW,202,0.0,0.0,92,0.00,,,0.00,WUHU21623XXSP,2013-01-20 13:39:00,
2013-01-20 05:44:00,12.0,10.0,30.45,SSW,202,0.0,0.0,92,0.00,,,0.00,WUHU21623XXSP,2013-01-20 13:44:00,
2013-01-20 05:49:00,11.5,9.5,30.45,SSW,202,0.0,0.0,92,0.00,,,0.00,WUHU21623XXSP,2013-01-20 13:49:00,
2013-01-20 05:54:00,11.3,9.3,30.45,SSW,202,0.0,0.0,92,0.00,,,0.00,WUHU21623XXSP,2013-01-20 13:54:00,
2013-01-20 05:59:00,11.1,9.1,30.45,SSW,202,0.0,0.0,92,0.00,,,0.00,WUHU21623XXSP,2013-01-20 13:59:00,
2013-01-20 06:04:00,11.1,9.1,30.45,SSW,202,0.0,0.0,92,0.00,,,0.00,WUHU21623XXSP,2013-01-20 14:04:00,
2013-01-20 06:09:00,11.5,9.5,30.45,SSW,202,0.0,0.0,92,0.00,,,0.00,WUHU21623XXSP,2013-01-20 14:09:00,
2013-01-20 06:14:00,11.5,9.5,30.45,SSW,202,0.0,0.0,92,0.00,,,0.00,WUHU21623XXSP,2013-01-20 14:14:00,
2013-01-20 06:19:00,11.1,9.1,30.45,SSW,202,0.0,0.0,92,0.00,,,0.00,WUHU21623XXSP,2013-01-20 14:19:00,
2013-01-20 06:24:00,11.1,9.1,30.45,SSW,202,0.0,0.0,92,0.00,,,0.00,WUHU21623XXSP,2013-01-20 14:24:00,
2013-01-20 06:29:00,11.1,9.1,30.45,SSW,202,0.0,0.0,92,0.00,,,0.00,WUHU21623XXSP,2013-01-20 14:29:00,
2013-01-20 06:34:00,10.9,8.9,30.45,SSW,202,0.0,0.0,92,0.00,,,0.00,WUHU21623XXSP,2013-01-20 14:34:00,
2013-01-20 06:39:00,10.8,8.8,30.45,SSW,202,0.0,0.0,92,0.00,,,0.00,WUHU21623XXSP,2013-01-20 14:39:00,
2013-01-20 06:44:00,11.1,9.1,30.45,SSW,202,0.0,0.0,92,0.00,,,0.00,WUHU21623XXSP,2013-01-20 14:44:00,
2013-01-20 06:49:00,11.1,9.1,30.45,SSW,202,0.0,0.0,92,0.00,,,0.00,WUHU21623XXSP,2013-01-20 14:49:00,
2013-01-20 06:54:00,11.5,9.5,30.45,SSW,202,0.0,0.0,92,0.00,,,0.00,WUHU21623XXSP,2013-01-20 14:54:00,
2013-01-20 06:59:00,11.1,9.1,30.45,SSW,202,0.0,0.0,92,0.00,,,0.00,WUHU21623XXSP,2013-01-20 14:59:00,
2013-01-20 07:04:00,11.1,9.1,30.45,SSW,202,0.0,0.0,92,0.00,,,0.00,WUHU21623XXSP,2013-01-20 15:04:00,
2013-01-20 07:09:00,11.3,9.3,30.45,SSW,202,0.0,0.0,92,0.00,,,0.00,WUHU21623XXSP,2013-01-20 15:09:00,
2013-01-20 07:14:00,11.5,9.5,30.45,SSW,202,0.0,0.0,92,0.00,,,0.00,WUHU21623XXSP,2013-01-20 15:14:00,
2013-01-20 07:19:00,11.7,9.7,30.46,SSW,202,0.0,0.0,92,0.00,,,0.00,WUHU21623XXSP,2013-01-20 15:19:00,
2013-01-20 07:24:00,11.8,9.8,30.46,SSW,202,0.0,0.0,92,0.00,,,0.00,WUHU21623XXSP,2013-01-20 15:24:00,
2013-01-20 07:29:00,11.8,9.8,30.46,SSW,202,0.0,0.0,92,0.00,,,0.00,WUHU21623XXSP,2013-01-20 15:29:00,
2013-01-20 07:34:00,12.0,10.0,30.46,SSW,202,0.0,0.0,92,0.00,,,0.00,WUHU21623XXSP,2013-01-20 15:34:00,
2013-01-20 07:39:00,12.0,10.0,30.46,SSW,202,0.0,0.0,92,0.00,,,0.00,WUHU21623XXSP,2013-01-20 15:39:00,
2013-01-20 07:45:00,12.0,10.0,30.46,SSW,202,0.0,0.0,92,0.00,,,0.00,WUHU21623XXSP,2013-01-20 15:45:00,
2013-01-20 07:50:00,12.0,10.0,30.46,SW,225,0.0,0.0,92,0.00,,,0.00,WUHU21623XXSP,2013-01-20 15:50:00,
2013-01-20 07:55:00,13.1,11.4,30.46,SW,225,0.0,0.0,93,0.00,,,0.00,WUHU21623XXSP,2013-01-20 15:55:00,
2013-01-20 08:00:00,14.2,12.7,30.47,SW,225,0.0,0.0,94,0.00,,,0.00,WUHU21623XXSP,2013-01-20 16:00:00,
2013-01-20 08:05:00,15.1,13.6,30.47,SW,225,0.0,0.0,94,0.00,,,0.00,WUHU21623XXSP,2013-01-20 16:05:00,
2013-01-20 08:10:00,17.2,16.2,30.47,WSW,247,0.0,0.0,96,0.00,,,0.00,WUHU21623XXSP,2013-01-20 16:10:00,
2013-01-20 08:14:00,18.9,17.9,30.48,WSW,247,0.0,0.0,96,0.00,,,0.00,WUHU21623XXSP,2013-01-20 16:14:00,
2013-01-20 08:19:00,19.8,18.8,30.48,WSW,247,0.0,0.0,96,0.00,,,0.00,WUHU21623XXSP,2013-01-20 16:19:00,
2013-01-20 08:24:00,19.4,18.4,30.48,WSW,247,0.0,0.0,96,0.00,,,0.00,WUHU21623XXSP,2013-01-20 16:24:00,
2013-01-20 08:29:00,19.6,18.6,30.48,WSW,247,0.0,0.0,96,0.00,,,0.00,WUHU21623XXSP,2013-01-20 16:29:00,
2013-01-20 08:34:00,22.5,21.7,30.48,WSW,247,0.0,0.0,97,0.00,,,0.00,WUHU21623XXSP,2013-01-20 16:34:00,
2013-01-20 08:39:00,23.4,22.6,30.48,WSW,247,0.0,0.0,97,0.00,,,0.00,WUHU21623XXSP,2013-01-20 16:39:00,
2013-01-20 08:44:00,24.4,23.3,30.48,WSW,247,0.0,0.0,96,0.00,,,0.00,WUHU21623XXSP,2013-01-20 16:44:00,
2013-01-20 08:49:00,27.5,26.7,30.48,WSW,247,0.0,0.0,97,0.00,,,0.00,WUHU21623XXSP,2013-01-20 16:49:00,
2013-01-20 08:55:00,29.1,28.0,30.48,WSW,247,0.0,0.0,96,0.00,,,0.00,WUHU21623XXSP,2013-01-20 16:55:00,
2013-01-20 09:00:00,30.0,28.4,30.48,WSW,247,0.0,0.0,94,0.00,,,0.00,WUHU21623XXSP,2013-01-20 17:00:00,
2013-01-20 09:05:00,30.7,27.7,30.48,WSW,247,0.0,0.0,89,0.00,,,0.00,WUHU21623XXSP,2013-01-20 17:05:00,
2013-01-20 09:10:00,30.7,27.7,30.48,WSW,247,0.0,0.0,89,0.00,,,0.00,WUHU21623XXSP,2013-01-20 17:10:00,
2013-01-20 09:15:00,30.9,27.4,30.49,WSW,247,0.0,0.0,87,0.00,,,0.00,WUHU21623XXSP,2013-01-20 17:15:00,
2013-01-20 09:20:00,31.8,28.3,30.49,WSW,247,0.0,0.0,87,0.00,,,0.00,WUHU21623XXSP,2013-01-20 17:20:00,
2013-01-20 09:25:00,32.5,28.7,30.49,WSW,247,0.0,0.0,86,0.00,,,0.00,WUHU21623XXSP,2013-01-20 17:25:00,
2013-01-20 09:30:00,34.3,30.2,30.49,WSW,247,0.0,0.0,85,0.00,,,0.00,WUHU21623XXSP,2013-01-20 17:30:00,
2013-01-20 09:34:00,36.3,31.9,30.49,WSW,247,0.0,0.0,84,0.00,,,0.00,WUHU21623XXSP,2013-01-20 17:34:00,
2013-01-20 09:40:00,37.9,33.4,30.49,WSW,247,0.0,0.0,84,0.00,,,0.00,WUHU21623XXSP,2013-01-20 17:40:00,
2013-01-20 09:44:00,39.4,34.0,30.49,WSW,247,0.0,0.0,81,0.00,,,0.00,WUHU21623XXSP,2013-01-20 17:44:00,
2013-01-20 09:49:00,39.6,33.3,30.49,WSW,247,0.0,0.0,78,0.00,,,0.00,WUHU21623XXSP,2013-01-20 17:49:00,
2013-01-20 09:54:00,39.2,32.9,30.49,WSW,247,0.0,0.0,78,0.00,,,0.00,WUHU21623XXSP,2013-01-20 17:54:00,
2013-01-20 09:59:00,39.6,33.0,30.49,WSW,247,0.0,0.0,77,0.00,,,0.00,WUHU21623XXSP,2013-01-20 17:59:00,
2013-01-20 10:04:00,37.2,29.0,30.49,WSW,247,0.0,0.0,72,0.00,,,0.00,WUHU21623XXSP,2013-01-20 18:04:00,
2013-01-20 10:09:00,35.4,27.3,30.49,WSW,247,0.0,0.0,72,0.00,,,0.00,WUHU21623XXSP,2013-01-20 18:09:00,
2013-01-20 10:14:00,34.3,26.2,30.50,WSW,247,0.0,0.0,72,0.00,,,0.00,WUHU21623XXSP,2013-01-20 18:14:00,
2013-01-20 10:19:00,33.6,26.5,30.50,WSW,247,0.0,0.0,75,0.00,,,0.00,WUHU21623XXSP,2013-01-20 18:19:00,
2013-01-20 10:24:00,34.9,28.1,30.50,WSW,247,0.0,0.0,76,0.00,,,0.00,WUHU21623XXSP,2013-01-20 18:24:00,
2013-01-20 10:29:00,36.3,29.4,30.50,WSW,247,0.0,0.0,76,0.00,,,0.00,WUHU21623XXSP,2013-01-20 18:29:00,
2013-01-20 10:34:00,37.9,30.0,30.49,WSW,247,0.0,0.0,73,0.00,,,0.00,WUHU21623XXSP,2013-01-20 18:34:00,
2013-01-20 10:39:00,37.9,29.3,30.49,WSW,247,0.0,0.0,71,0.00,,,0.00,WUHU21623XXSP,2013-01-20 18:39:00,
2013-01-20 10:44:00,36.9,27.7,30.49,SW,225,0.0,0.0,69,0.00,,,0.00,WUHU21623XXSP,2013-01-20 18:44:00,
2013-01-20 10:49:00,34.0,25.2,30.49,SW,225,0.0,0.0,70,0.00,,,0.00,WUHU21623XXSP,2013-01-20 18:49:00,
2013-01-20 10:54:00,32.9,24.9,30.49,SW,225,0.0,0.0,72,0.00,,,0.00,WUHU21623XXSP,2013-01-20 18:54:00,
2013-01-20 10:59:00,32.2,24.5,30.49,SW,225,0.0,0.0,73,0.00,,,0.00,WUHU21623XXSP,2013-01-20 18:59:00,
2013-01-20 11:05:00,31.3,24.0,30.49,SW,225,0.0,0.0,74,0.00,,,0.00,WUHU21623XXSP,2013-01-20 19:05:00,
2013-01-20 11:10:00,30.6,23.6,30.48,SW,225,0.0,0.0,75,0.00,,,0.00,WUHU21623XXSP,2013-01-20 19:10:00,
2013-01-20 11:15:00,30.2,23.2,30.48,SW,225,0.0,0.0,75,0.00,,,0.00,WUHU21623XXSP,2013-01-20 19:15:00,
2013-01-20 11:20:00,30.6,23.9,30.48,WSW,247,0.0,0.0,76,0.00,,,0.00,WUHU21623XXSP,2013-01-20 19:20:00,
2013-01-20 11:25:00,30.9,24.2,30.48,SW,225,0.0,0.0,76,0.00,,,0.00,WUHU21623XXSP,2013-01-20 19:25:00,
2013-01-20 11:30:00,31.3,24.6,30.48,SW,225,0.0,0.0,76,0.00,,,0.00,WUHU21623XXSP,2013-01-20 19:30:00,
2013-01-20 11:35:00,31.6,24.9,30.48,SW,225,0.0,0.0,76,0.00,,,0.00,WUHU21623XXSP,2013-01-20 19:35:00,
2013-01-20 11:40:00,32.5,25.7,30.47,SW,225,0.0,0.0,76,0.00,,,0.00,WUHU21623XXSP,2013-01-20 19:40:00,
2013-01-20 11:45:00,33.4,26.6,30.47,SW,225,0.0,0.0,76,0.00,,,0.00,WUHU21623XXSP,2013-01-20 19:45:00,
2013-01-20 11:50:00,33.3,25.9,30.47,SW,225,0.0,0.0,74,0.00,,,0.00,WUHU21623XXSP,2013-01-20 19:50:00,
2013-01-20 11:55:00,32.9,25.5,30.47,SW,225,0.0,0.0,74,0.00,,,0.00,WUHU21623XXSP,2013-01-20 19:55:00,
2013-01-20 12:00:00,32.5,25.1,30.47,SW,225,0.0,0.0,74,0.00,,,0.00,WUHU21623XXSP,2013-01-20 20:00:00,
2013-01-20 12:05:00,31.3,24.3,30.46,SW,225,0.0,0.0,75,0.00,,,0.00,WUHU21623XXSP,2013-01-20 20:05:00,
2013-01-20 12:10:00,30.6,23.6,30.46,SW,225,0.0,0.0,75,0.00,,,0.00,WUHU21623XXSP,2013-01-20 20:10:00,
2013-01-20 12:15:00,29.8,23.1,30.46,SW,225,0.0,0.0,76,0.00,,,0.00,WUHU21623XXSP,2013-01-20 20:15:00,
2013-01-20 12:20:00,29.7,23.6,30.46,SW,225,0.0,0.0,78,0.00,,,0.00,WUHU21623XXSP,2013-01-20 20:20:00,
2013-01-20 12:25:00,29.7,23.9,30.46,SW,225,0.0,0.0,79,0.00,,,0.00,WUHU21623XXSP,2013-01-20 20:25:00,
2013-01-20 12:30:00,29.7,23.9,30.46,SW,225,0.0,0.0,79,0.00,,,0.00,WUHU21623XXSP,2013-01-20 20:30:00,
2013-01-20 12:35:00,29.1,23.4,30.46,SW,225,0.0,0.0,79,0.00,,,0.00,WUHU21623XXSP,2013-01-20 20:35:00,
2013-01-20 12:40:00,29.1,23.4,30.46,SW,225,0.0,0.0,79,0.00,,,0.00,WUHU21623XXSP,2013-01-20 20:40:00,
2013-01-20 12:45:00,29.1,23.4,30.45,SW,225,0.0,0.0,79,0.00,,,0.00,WUHU21623XXSP,2013-01-20 20:45:00,
2013-01-20 12:50:00,29.1,23.4,30.45,SW,225,0.0,0.0,79,0.00,,,0.00,WUHU21623XXSP,2013-01-20 20:50:00,
2013-01-20 12:55:00,29.3,23.5,30.45,SW,225,0.0,0.0,79,0.00,,,0.00,WUHU21623XXSP,2013-01-20 20:55:00,
2013-01-20 13:00:00,30.2,24.7,30.45,SW,225,0.0,0.0,80,0.00,,,0.00,WUHU21623XXSP,2013-01-20 21:00:00,
2013-01-20 13:05:00,30.0,24.2,30.45,SW,225,0.0,0.0,79,0.00,,,0.00,WUHU21623XXSP,2013-01-20 21:05:00,
2013-01-20 13:10:00,30.2,24.4,30.45,SW,225,0.0,0.0,79,0.00,,,0.00,WUHU21623XXSP,2013-01-20 21:10:00,
2013-01-20 13:15:00,30.7,25.2,30.44,SW,225,0.0,0.0,80,0.00,,,0.00,WUHU21623XXSP,2013-01-20 21:15:00,
2013-01-20 13:20:00,31.6,26.1,30.44,SW,225,0.0,0.0,80,0.00,,,0.00,WUHU21623XXSP,2013-01-20 21:20:00,
2013-01-20 13:25:00,31.8,25.7,30.44,SW,225,0.0,0.0,78,0.00,,,0.00,WUHU21623XXSP,2013-01-20 21:25:00,
2013-01-20 13:30:00,31.3,25.2,30.44,SW,225,0.0,0.0,78,0.00,,,0.00,WUHU21623XXSP,2013-01-20 21:30:00,
2013-01-20 13:35:00,30.7,24.6,30.44,SW,225,0.0,0.0,78,0.00,,,0.00,WUHU21623XXSP,2013-01-20 21:35:00,
2013-01-20 13:40:00,30.7,24.6,30.44,SW,225,0.0,0.0,78,0.00,,,0.00,WUHU21623XXSP,2013-01-20 21:40:00,
2013-01-20 13:45:00,30.4,24.3,30.44,SW,225,0.0,0.0,78,0.00,,,0.00,WUHU21623XXSP,2013-01-20 21:45:00,
2013-01-20 13:50:00,30.0,23.9,30.44,SW,225,0.0,0.0,78,0.00,,,0.00,WUHU21623XXSP,2013-01-20 21:50:00,
2013-01-20 13:55:00,29.7,23.6,30.44,SW,225,0.0,0.0,78,0.00,,,0.00,WUHU21623XXSP,2013-01-20 21:55:00,
2013-01-20 14:00:00,29.1,23.4,30.44,SW,225,0.0,0.0,79,0.00,,,0.00,WUHU21623XXSP,2013-01-20 22:00:00,
2013-01-20 14:05:00,29.5,23.7,30.44,SW,225,0.0,0.0,79,0.00,,,0.00,WUHU21623XXSP,2013-01-20 22:05:00,
2013-01-20 14:10:00,29.8,24.0,30.44,SW,225,0.0,0.0,79,0.00,,,0.00,WUHU21623XXSP,2013-01-20 22:10:00,
2013-01-20 14:15:00,29.8,24.0,30.43,SW,225,0.0,0.0,79,0.00,,,0.00,WUHU21623XXSP,2013-01-20 22:15:00,
2013-01-20 14:20:00,29.7,23.9,30.44,SW,225,0.0,0.0,79,0.00,,,0.00,WUHU21623XXSP,2013-01-20 22:20:00,
2013-01-20 14:25:00,29.3,23.5,30.44,SW,225,0.0,0.0,79,0.00,,,0.00,WUHU21623XXSP,2013-01-20 22:25:00,
2013-01-20 14:30:00,29.7,24.2,30.44,SW,225,0.0,0.0,80,0.00,,,0.00,WUHU21623XXSP,2013-01-20 22:30:00,
2013-01-20 14:35:00,30.0,24.5,30.43,SW,225,0.0,0.0,80,0.00,,,0.00,WUHU21623XXSP,2013-01-20 22:35:00,
2013-01-20 14:40:00,30.7,25.2,30.44,SW,225,0.0,0.0,80,0.00,,,0.00,WUHU21623XXSP,2013-01-20 22:40:00,
2013-01-20 14:45:00,31.3,25.5,30.44,SW,225,0.0,0.0,79,0.00,,,0.00,WUHU21623XXSP,2013-01-20 22:45:00,
2013-01-20 14:50:00,31.1,25.3,30.43,SW,225,0.0,0.0,79,0.00,,,0.00,WUHU21623XXSP,2013-01-20 22:50:00,
2013-01-20 14:55:00,31.3,25.5,30.43,SW,225,0.0,0.0,79,0.00,,,0.00,WUHU21623XXSP,2013-01-20 22:55:00,
2013-01-20 15:00:00,31.8,26.0,30.43,SW,225,0.0,0.0,79,0.00,,,0.00,WUHU21623XXSP,2013-01-20 23:00:00,
2013-01-20 15:05:00,31.6,25.5,30.43,SW,225,0.0,0.0,78,0.00,,,0.00,WUHU21623XXSP,2013-01-20 23:05:00,
2013-01-20 15:10:00,31.3,25.2,30.43,SW,225,0.0,0.0,78,0.00,,,0.00,WUHU21623XXSP,2013-01-20 23:10:00,
2013-01-20 15:15:00,31.3,25.2,30.43,SW,225,0.0,0.0,78,0.00,,,0.00,WUHU21623XXSP,2013-01-20 23:15:00,
2013-01-20 15:20:00,31.1,25.0,30.42,SW,225,0.0,0.0,78,0.00,,,0.00,WUHU21623XXSP,2013-01-20 23:20:00,
2013-01-20 15:25:00,30.9,24.8,30.43,SW,225,0.0,0.0,78,0.00,,,0.00,WUHU21623XXSP,2013-01-20 23:25:00,
2013-01-20 15:30:00,30.2,24.1,30.43,SW,225,0.0,0.0,78,0.00,,,0.00,WUHU21623XXSP,2013-01-20 23:30:00,
2013-01-20 15:35:00,29.7,23.6,30.43,SW,225,0.0,0.0,78,0.00,,,0.00,WUHU21623XXSP,2013-01-20 23:35:00,
2013-01-20 15:40:00,29.1,23.1,30.42,SW,225,0.0,0.0,78,0.00,,,0.00,WUHU21623XXSP,2013-01-20 23:40:00,
2013-01-20 15:45:00,28.8,23.1,30.42,SW,225,0.0,0.0,79,0.00,,,0.00,WUHU21623XXSP,2013-01-20 23:45:00,
2013-01-20 15:50:00,28.6,22.9,30.42,SW,225,0.0,0.0,79,0.00,,,0.00,WUHU21623XXSP,2013-01-20 23:50:00,
2013-01-20 15:55:00,28.2,22.5,30.43,SW,225,0.0,0.0,79,0.00,,,0.00,WUHU21623XXSP,2013-01-20 23:55:00,
2013-01-20 16:00:00,27.7,22.3,30.42,SW,225,0.0,0.0,80,0.00,,,0.00,WUHU21623XXSP,2013-01-21 00:00:00,
2013-01-20 16:05:00,27.1,21.7,30.42,SW,225,0.0,0.0,80,0.00,,,0.00,WUHU21623XXSP,2013-01-21 00:05:00,
2013-01-20 16:10:00,26.2,20.8,30.42,SW,225,0.0,0.0,80,0.00,,,0.00,WUHU21623XXSP,2013-01-21 00:10:00,
2013-01-20 16:15:00,25.7,20.6,30.43,SW,225,0.0,0.0,81,0.00,,,0.00,WUHU21623XXSP,2013-01-21 00:15:00,
2013-01-20 16:20:00,25.0,19.6,30.43,SW,225,0.0,0.0,80,0.00,,,0.00,WUHU21623XXSP,2013-01-21 00:20:00,
2013-01-20 16:25:00,24.1,19.1,30.43,SSW,202,0.0,0.0,81,0.00,,,0.00,WUHU21623XXSP,2013-01-21 00:25:00,
2013-01-20 16:30:00,23.7,19.2,30.43,SSW,202,0.0,0.0,83,0.00,,,0.00,WUHU21623XXSP,2013-01-21 00:30:00,
2013-01-20 16:35:00,23.5,19.3,30.43,SSW,202,0.0,0.0,84,0.00,,,0.00,WUHU21623XXSP,2013-01-21 00:35:00,
2013-01-20 16:40:00,23.0,18.5,30.43,SSW,202,0.0,0.0,83,0.00,,,0.00,WUHU21623XXSP,2013-01-21 00:40:00,
2013-01-20 16:45:00,22.5,18.0,30.43,SSW,202,0.0,0.0,83,0.00,,,0.00,WUHU21623XXSP,2013-01-21 00:45:00,
2013-01-20 16:50:00,22.1,17.9,30.43,SSW,202,0.0,0.0,84,0.00,,,0.00,WUHU21623XXSP,2013-01-21 00:50:00,
2013-01-20 16:55:00,21.6,17.4,30.43,SSW,202,0.0,0.0,84,0.00,,,0.00,WUHU21623XXSP,2013-01-21 00:55:00,
2013-01-20 17:00:00,20.8,16.7,30.43,SSW,202,0.0,0.0,84,0.00,,,0.00,WUHU21623XXSP,2013-01-21 01:00:00,
2013-01-20 17:05:00,20.5,16.4,30.43,SSW,202,0.0,0.0,84,0.00,,,0.00,WUHU21623XXSP,2013-01-21 01:05:00,
2013-01-20 17:10:00,20.3,16.2,30.43,SSW,202,0.0,0.0,84,0.00,,,0.00,WUHU21623XXSP,2013-01-21 01:10:00,
2013-01-20 17:15:00,19.9,16.0,30.43,SSW,202,0.0,0.0,85,0.00,,,0.00,WUHU21623XXSP,2013-01-21 01:15:00,
2013-01-20 17:20:00,19.6,15.7,30.43,SSW,202,0.0,0.0,85,0.00,,,0.00,WUHU21623XXSP,2013-01-21 01:20:00,
2013-01-20 17:25:00,19.2,15.6,30.42,SSW,202,0.0,0.0,86,0.00,,,0.00,WUHU21623XXSP,2013-01-21 01:25:00,
2013-01-20 17:30:00,18.9,15.3,30.42,SSW,202,0.0,0.0,86,0.00,,,0.00,WUHU21623XXSP,2013-01-21 01:30:00,
2013-01-20 17:35:00,18.7,15.1,30.42,SSW,202,0.0,0.0,86,0.00,,,0.00,WUHU21623XXSP,2013-01-21 01:35:00,
2013-01-20 17:40:00,18.5,15.2,30.42,SSW,202,0.0,0.0,87,0.00,,,0.00,WUHU21623XXSP,2013-01-21 01:40:00,
2013-01-20 17:45:00,18.3,15.0,30.43,SSW,202,0.0,0.0,87,0.00,,,0.00,WUHU21623XXSP,2013-01-21 01:45:00,
2013-01-20 17:49:00,18.1,14.8,30.42,SSW,202,0.0,0.0,87,0.00,,,0.00,WUHU21623XXSP,2013-01-21 01:49:00,
2013-01-20 17:50:00,18.1,14.8,30.42,SSW,202,0.0,0.0,87,0.00,,,0.00,WUHU21623XXSP,2013-01-21 01:50:00,
2013-01-20 17:53:00,18.1,14.8,30.42,SSW,202,0.0,0.0,87,0.00,,,0.00,WUHU21623XXSP,2013-01-21 01:53:00,
2013-01-20 18:00:00,18.0,14.7,30.42,SSW,202,0.0,0.0,87,0.00,,,0.00,WUHU21623XXSP,2013-01-21 02:00:00,
2013-01-20 18:06:00,17.2,13.9,30.42,SSW,202,0.0,0.0,87,0.00,,,0.00,WUHU21623XXSP,2013-01-21 02:06:00,
2013-01-20 18:21:00,15.6,12.6,30.41,SSW,202,0.0,0.0,88,0.00,,,0.00,WUHU21623XXSP,2013-01-21 02:21:00,
2013-01-20 18:26:00,15.4,12.1,30.42,SSW,202,0.0,0.0,87,0.00,,,0.00,WUHU21623XXSP,2013-01-21 02:26:00,
2013-01-20 18:31:00,15.3,12.3,30.42,SSW,202,0.0,0.0,88,0.00,,,0.00,WUHU21623XXSP,2013-01-21 02:31:00,
2013-01-20 18:36:00,15.4,12.4,30.42,SSW,202,0.0,0.0,88,0.00,,,0.00,WUHU21623XXSP,2013-01-21 02:36:00,
2013-01-20 18:41:00,15.4,12.6,30.41,SSW,202,0.0,0.0,89,0.00,,,0.00,WUHU21623XXSP,2013-01-21 02:41:00,
2013-01-20 18:46:00,15.3,12.5,30.41,SSW,202,0.0,0.0,89,0.00,,,0.00,WUHU21623XXSP,2013-01-21 02:46:00,
2013-01-20 18:51:00,15.1,12.3,30.41,SSW,202,0.0,0.0,89,0.00,,,0.00,WUHU21623XXSP,2013-01-21 02:51:00,
2013-01-20 18:56:00,14.7,12.0,30.41,SSW,202,0.0,0.0,89,0.00,,,0.00,WUHU21623XXSP,2013-01-21 02:56:00,
2013-01-20 19:01:00,14.5,11.8,30.41,SSW,202,0.0,0.0,89,0.00,,,0.00,WUHU21623XXSP,2013-01-21 03:01:00,
2013-01-20 19:06:00,14.7,12.0,30.41,SSW,202,0.0,0.0,89,0.00,,,0.00,WUHU21623XXSP,2013-01-21 03:06:00,
2013-01-20 19:11:00,14.7,12.0,30.41,SSW,202,0.0,0.0,89,0.00,,,0.00,WUHU21623XXSP,2013-01-21 03:11:00,
2013-01-20 19:16:00,14.5,11.8,30.40,SSW,202,0.0,0.0,89,0.00,,,0.00,WUHU21623XXSP,2013-01-21 03:16:00,
2013-01-20 19:21:00,14.7,12.2,30.41,SSW,202,0.0,0.0,90,0.00,,,0.00,WUHU21623XXSP,2013-01-21 03:21:00,
2013-01-20 19:26:00,14.5,12.0,30.40,SSW,202,0.0,0.0,90,0.00,,,0.00,WUHU21623XXSP,2013-01-21 03:26:00,
2013-01-20 19:31:00,14.2,11.5,30.41,SSW,202,0.0,0.0,89,0.00,,,0.00,WUHU21623XXSP,2013-01-21 03:31:00,
2013-01-20 19:36:00,14.2,11.5,30.40,SSW,202,0.0,0.0,89,0.00,,,0.00,WUHU21623XXSP,2013-01-21 03:36:00,
2013-01-20 19:41:00,14.2,11.5,30.40,SSW,202,0.0,0.0,89,0.00,,,0.00,WUHU21623XXSP,2013-01-21 03:41:00,
2013-01-20 19:46:00,13.8,11.1,30.40,SSW,202,0.0,0.0,89,0.00,,,0.00,WUHU21623XXSP,2013-01-21 03:46:00,
2013-01-20 19:51:00,13.8,11.1,30.40,SSW,202,0.0,0.0,89,0.00,,,0.00,WUHU21623XXSP,2013-01-21 03:51:00,
2013-01-20 19:56:00,13.8,11.1,30.40,SSW,202,0.0,0.0,89,0.00,,,0.00,WUHU21623XXSP,2013-01-21 03:56:00,
2013-01-20 20:01:00,13.8,11.1,30.40,SSW,202,0.0,0.0,89,0.00,,,0.00,WUHU21623XXSP,2013-01-21 04:01:00,
2013-01-20 20:06:00,13.8,11.1,30.40,SSW,202,0.0,0.0,89,0.00,,,0.00,WUHU21623XXSP,2013-01-21 04:06:00,
2013-01-20 20:11:00,12.9,10.2,30.40,SSW,202,0.0,0.0,89,0.00,,,0.00,WUHU21623XXSP,2013-01-21 04:11:00,
2013-01-20 20:16:00,12.7,10.0,30.40,SSW,202,0.0,0.0,89,0.00,,,0.00,WUHU21623XXSP,2013-01-21 04:16:00,
2013-01-20 20:21:00,12.9,10.4,30.40,SSW,202,0.0,0.0,90,0.00,,,0.00,WUHU21623XXSP,2013-01-21 04:21:00,
2013-01-20 20:26:00,13.1,10.6,30.40,SSW,202,0.0,0.0,90,0.00,,,0.00,WUHU21623XXSP,2013-01-21 04:26:00,
2013-01-20 20:31:00,13.1,10.6,30.40,SSW,202,0.0,0.0,90,0.00,,,0.00,WUHU21623XXSP,2013-01-21 04:31:00,
2013-01-20 20:36:00,13.3,10.8,30.40,SSW,202,0.0,0.0,90,0.00,,,0.00,WUHU21623XXSP,2013-01-21 04:36:00,
2013-01-20 20:41:00,13.1,10.6,30.40,SSW,202,0.0,0.0,90,0.00,,,0.00,WUHU21623XXSP,2013-01-21 04:41:00,
2013-01-20 20:46:00,12.9,10.4,30.40,SSW,202,0.0,0.0,90,0.00,,,0.00,WUHU21623XXSP,2013-01-21 04:46:00,
2013-01-20 20:51:00,12.9,10.4,30.40,SSW,202,0.0,0.0,90,0.00,,,0.00,WUHU21623XXSP,2013-01-21 04:51:00,
2013-01-20 20:56:00,12.7,10.2,30.40,SSW,202,0.0,0.0,90,0.00,,,0.00,WUHU21623XXSP,2013-01-21 04:56:00,
2013-01-20 21:01:00,12.7,10.2,30.40,SSW,202,0.0,0.0,90,0.00,,,0.00,WUHU21623XXSP,2013-01-21 05:01:00,
2013-01-20 21:02:00,12.7,10.2,30.40,SSW,202,0.0,0.0,90,0.00,,,0.00,WUHU21623XXSP,2013-01-21 05:02:00,
2013-01-20 21:03:00,12.7,10.2,30.40,SSW,202,0.0,0.0,90,0.00,,,0.00,WUHU21623XXSP,2013-01-21 05:03:00,
2013-01-20 21:08:00,12.7,10.2,30.40,SSW,202,0.0,0.0,90,0.00,,,0.00,WUHU21623XXSP,2013-01-21 05:08:00,
2013-01-20 21:13:00,12.4,9.9,30.40,SSW,202,0.0,0.0,90,0.00,,,0.00,WUHU21623XXSP,2013-01-21 05:13:00,
2013-01-20 21:18:00,12.2,9.7,30.41,SSW,202,0.0,0.0,90,0.00,,,0.00,WUHU21623XXSP,2013-01-21 05:18:00,
2013-01-20 21:23:00,12.0,9.3,30.40,SSW,202,0.0,0.0,89,0.00,,,0.00,WUHU21623XXSP,2013-01-21 05:23:00,
2013-01-20 21:28:00,12.0,9.5,30.40,SSW,202,0.0,0.0,90,0.00,,,0.00,WUHU21623XXSP,2013-01-21 05:28:00,
2013-01-20 21:33:00,11.8,9.3,30.40,SSW,202,0.0,0.0,90,0.00,,,0.00,WUHU21623XXSP,2013-01-21 05:33:00,
2013-01-20 21:38:00,11.7,9.2,30.40,SSW,202,0.0,0.0,90,0.00,,,0.00,WUHU21623XXSP,2013-01-21 05:38:00,
2013-01-20 21:43:00,11.5,8.8,30.40,SSW,202,0.0,0.0,89,0.00,,,0.00,WUHU21623XXSP,2013-01-21 05:43:00,
2013-01-20 21:48:00,11.1,8.4,30.40,SSW,202,0.0,0.0,89,0.00,,,0.00,WUHU21623XXSP,2013-01-21 05:48:00,
2013-01-20 21:53:00,11.1,8.6,30.40,SSW,202,0.0,0.0,90,0.00,,,0.00,WUHU21623XXSP,2013-01-21 05:53:00,
2013-01-20 21:58:00,12.0,9.5,30.40,SSW,202,0.0,0.0,90,0.00,,,0.00,WUHU21623XXSP,2013-01-21 05:58:00,
2013-01-20 22:03:00,12.0,9.5,30.40,SSW,202,0.0,0.0,90,0.00,,,0.00,WUHU21623XXSP,2013-01-21 06:03:00,
2013-01-20 22:08:00,12.0,9.5,30.40,SSW,202,0.0,0.0,90,0.00,,,0.00,WUHU21623XXSP,2013-01-21 06:08:00,
2013-01-20 22:13:00,12.4,9.9,30.40,SSW,202,0.0,0.0,90,0.00,,,0.00,WUHU21623XXSP,2013-01-21 06:13:00,
2013-01-20 22:18:00,12.2,10.0,30.39,SSW,202,0.0,0.0,91,0.00,,,0.00,WUHU21623XXSP,2013-01-21 06:18:00,
2013-01-20 22:23:00,12.0,9.8,30.40,SSW,202,0.0,0.0,91,0.00,,,0.00,WUHU21623XXSP,2013-01-21 06:23:00,
2013-01-20 22:28:00,12.0,9.8,30.40,SSW,202,0.0,0.0,91,0.00,,,0.00,WUHU21623XXSP,2013-01-21 06:28:00,
2013-01-20 22:33:00,12.2,10.0,30.40,SSW,202,0.0,0.0,91,0.00,,,0.00,WUHU21623XXSP,2013-01-21 06:33:00,
2013-01-20 22:38:00,12.2,9.7,30.40,SSW,202,0.0,0.0,90,0.00,,,0.00,WUHU21623XXSP,2013-01-21 06:38:00,
2013-01-20 22:43:00,12.2,10.0,30.40,SSW,202,0.0,0.0,91,0.00,,,0.00,WUHU21623XXSP,2013-01-21 06:43:00,
2013-01-20 22:48:00,12.2,10.0,30.40,SSW,202,0.0,0.0,91,0.00,,,0.00,WUHU21623XXSP,2013-01-21 06:48:00,
2013-01-20 22:53:00,12.2,10.0,30.40,SSW,202,0.0,0.0,91,0.00,,,0.00,WUHU21623XXSP,2013-01-21 06:53:00,
2013-01-20 22:58:00,12.2,9.7,30.40,SSW,202,0.0,0.0,90,0.00,,,0.00,WUHU21623XXSP,2013-01-21 06:58:00,
2013-01-20 23:03:00,10.9,8.4,30.40,SSW,202,0.0,0.0,90,0.00,,,0.00,WUHU21623XXSP,2013-01-21 07:03:00,
2013-01-20 23:08:00,10.9,8.4,30.40,SSW,202,0.0,0.0,90,0.00,,,0.00,WUHU21623XXSP,2013-01-21 07:08:00,
2013-01-20 23:13:00,10.9,8.4,30.40,SSW,202,0.0,0.0,90,0.00,,,0.00,WUHU21623XXSP,2013-01-21 07:13:00,
2013-01-20 23:18:00,10.8,8.3,30.40,SSW,202,0.0,0.0,90,0.00,,,0.00,WUHU21623XXSP,2013-01-21 07:18:00,
2013-01-20 23:23:00,10.8,8.3,30.40,SSW,202,0.0,0.0,90,0.00,,,0.00,WUHU21623XXSP,2013-01-21 07:23:00,
2013-01-20 23:28:00,10.0,7.6,30.39,SSW,202,0.0,0.0,90,0.00,,,0.00,WUHU21623XXSP,2013-01-21 07:28:00,
2013-01-20 23:33:00,9.7,7.3,30.39,SSW,202,0.0,0.0,90,0.00,,,0.00,WUHU21623XXSP,2013-01-21 07:33:00,
2013-01-20 23:38:00,9.7,7.3,30.39,SSW,202,0.0,0.0,90,0.00,,,0.00,WUHU21623XXSP,2013-01-21 07:38:00,
2013-01-20 23:43:00,9.7,7.3,30.39,SSW,202,0.0,0.0,90,0.00,,,0.00,WUHU21623XXSP,2013-01-21 07:43:00,
2013-01-20 23:48:00,9.7,7.3,30.39,SSW,202,0.0,0.0,90,0.00,,,0.00,WUHU21623XXSP,2013-01-21 07:48:00,
2013-01-20 23:53:00,9.7,7.3,30.39,SSW,202,0.0,0.0,90,0.00,,,0.00,WUHU21623XXSP,2013-01-21 07:53:00,
2013-01-20 23:58:00,9.7,7.3,30.39,SSW,202,0.0,0.0,90,0.00,,,0.00,WUHU21623XXSP,2013-01-21 07:58:00,